Tracking 21998 objects as of 1-Dec-2020
HD Live streaming from Space Station
objects crossing your sky now

RAX-2

Track RAX-2 now!
10-day predictions
RAX-2 is classified as:


NORAD ID: 37853
Int'l Code: 2011-061D
Perigee: 444.4 km
Apogee: 675.3 km
Inclination: 101.7 °
Period: 95.7 minutes
Semi major axis: 6930 km
RCS: 0.0758 m2 (small)
Launch date: October 28, 2011
Source: United States (US)
Launch site: AIR FORCE WESTERN TEST RANGE (AFWTR)

Uplink (MHz):
Downlink (MHz): 437.345
Beacon (MHz):
Mode: 9600bps GMSK
Call sign:
Status: Inactive

aabbcc
Your satellite tracking list
Your tracking list is empty




NASA's NSSDC Master Catalog

Two Line Element Set (TLE):
1 37853U 11061D   20336.38921178 +.00002983 +00000-0 +16425-3 0  9991
2 37853 101.7236 139.8426 0166527 317.8158 041.0337 15.04608171495932
Source of the keplerian elements: AFSPC